IAM7VH EDDL-EDDN

Flight info

Callsign IAM7VH
Flight time 0h 50m
Altitude 23000
Route NUDGO6T NUDGO Z858 ESADU P12 WRB Z190 VELIS T194 DODAS DODAS1V
Aircraft A320/M-SDE3FGHIJ5RWY/LB1

Departure

Time 2026-05-04 17:36
Airport Düsseldorf Airport (EDDL)

Arrival

Time 2026-05-04 18:26
Airport Nuremberg Airport (EDDN)
Time Latitude Longitude Altitude Speed Heading
2026-05-04 16:39 51.27703 6.75305 137 ft 0 kts 244°
2026-05-04 17:23 51.27723 6.75369 137 ft 2 kts 244°
2026-05-04 17:23 51.27730 6.75393 137 ft 2 kts 244°
2026-05-04 17:23 51.27730 6.75446 137 ft 2 kts 315°
2026-05-04 17:24 51.27729 6.75448 137 ft 0 kts 317°
2026-05-04 17:27 51.27747 6.75424 137 ft 5 kts 323°
2026-05-04 17:27 51.27806 6.75378 137 ft 4 kts 346°
2026-05-04 17:28 51.27851 6.75439 131 ft 6 kts 55°
2026-05-04 17:29 51.27985 6.75722 137 ft 16 kts 52°
2026-05-04 17:29 51.28241 6.76257 137 ft 25 kts 53°
2026-05-04 17:30 51.28552 6.76908 137 ft 19 kts 52°
2026-05-04 17:31 51.28740 6.77302 137 ft 25 kts 52°
2026-05-04 17:31 51.29021 6.77891 137 ft 15 kts 52°
2026-05-04 17:32 51.29171 6.78209 137 ft 21 kts 53°
2026-05-04 17:33 51.29361 6.78574 138 ft 12 kts 18°
2026-05-04 17:33 51.29427 6.78570 138 ft 0 kts 357°
2026-05-04 17:35 51.29482 6.78564 141 ft 2 kts 355°
2026-05-04 17:35 51.29427 6.78274 141 ft 39 kts 234°
2026-05-04 17:35 51.29130 6.77652 135 ft 105 kts 233°
2026-05-04 17:36 51.28567 6.76470 160 ft 157 kts 232°
2026-05-04 17:36 51.27921 6.75092 797 ft 154 kts 230°
2026-05-04 17:36 51.27288 6.73729 1504 ft 154 kts 232°
2026-05-04 17:36 51.26604 6.72259 1915 ft 176 kts 232°
2026-05-04 17:37 51.25837 6.70619 2242 ft 199 kts 232°
2026-05-04 17:37 51.24954 6.68728 2743 ft 216 kts 232°
2026-05-04 17:37 51.24063 6.66818 3583 ft 219 kts 232°
2026-05-04 17:37 51.23091 6.64853 4064 ft 223 kts 223°
2026-05-04 17:38 51.21768 6.63687 4375 ft 225 kts 192°
2026-05-04 17:38 51.20201 6.63684 5235 ft 228 kts 177°
2026-05-04 17:38 51.18608 6.63925 6019 ft 237 kts 176°
2026-05-04 17:38 51.16892 6.64194 6499 ft 258 kts 176°
2026-05-04 17:39 51.13699 6.66882 8053 ft 282 kts 125°
2026-05-04 17:39 51.13046 6.69808 8660 ft 292 kts 96°
2026-05-04 17:39 51.13108 6.73088 9090 ft 296 kts 88°
2026-05-04 17:40 51.13247 6.76361 9351 ft 296 kts 88°
2026-05-04 17:40 51.13397 6.79636 9617 ft 297 kts 88°
2026-05-04 17:40 51.13540 6.82918 9869 ft 298 kts 89°
2026-05-04 17:40 51.13673 6.86239 9986 ft 309 kts 89°
2026-05-04 17:41 51.13803 6.89767 10321 ft 330 kts 89°
2026-05-04 17:41 51.13939 6.93527 10737 ft 347 kts 89°
2026-05-04 17:41 51.14082 6.97406 11442 ft 353 kts 89°
2026-05-04 17:41 51.14227 7.01333 12213 ft 358 kts 89°
2026-05-04 17:42 51.14374 7.05317 12989 ft 362 kts 89°
2026-05-04 17:42 51.14519 7.09341 13771 ft 366 kts 89°
2026-05-04 17:42 51.14662 7.13407 14440 ft 370 kts 89°
2026-05-04 17:42 51.14803 7.17524 15117 ft 374 kts 89°
2026-05-04 17:43 51.14946 7.21680 15775 ft 378 kts 89°
2026-05-04 17:43 51.15089 7.25885 16426 ft 382 kts 89°
2026-05-04 17:43 51.15231 7.30139 16899 ft 386 kts 90°
2026-05-04 17:43 51.15371 7.34410 16989 ft 387 kts 90°
2026-05-04 17:44 51.15509 7.38633 17045 ft 388 kts 90°
2026-05-04 17:44 51.15712 7.42949 17681 ft 393 kts 84°
2026-05-04 17:44 51.16348 7.47217 18330 ft 400 kts 73°
2026-05-04 17:44 51.17362 7.51370 18877 ft 404 kts 70°
2026-05-04 17:45 51.18405 7.55558 19439 ft 408 kts 70°
2026-05-04 17:45 51.19449 7.59777 20020 ft 411 kts 70°
2026-05-04 17:45 51.20493 7.64036 20597 ft 415 kts 70°
2026-05-04 17:45 51.21545 7.68345 21149 ft 418 kts 70°
2026-05-04 17:46 51.22605 7.72693 21699 ft 422 kts 70°
2026-05-04 17:46 51.23673 7.77071 22247 ft 426 kts 70°
2026-05-04 17:46 51.24749 7.81495 22778 ft 429 kts 70°
2026-05-04 17:46 51.25833 7.85965 23306 ft 433 kts 70°
2026-05-04 17:47 51.26921 7.90461 23767 ft 437 kts 70°
2026-05-04 17:47 51.28021 7.95013 24190 ft 441 kts 70°
2026-05-04 17:47 51.29127 7.99602 24599 ft 444 kts 70°
2026-05-04 17:47 51.30240 8.04232 25001 ft 448 kts 70°
2026-05-04 17:48 51.30978 8.07311 25266 ft 450 kts 70°
2026-05-04 17:48 51.32096 8.11983 25649 ft 453 kts 71°
2026-05-04 17:48 51.33229 8.16726 26026 ft 457 kts 71°
2026-05-04 17:48 51.34363 8.21483 26403 ft 460 kts 71°
2026-05-04 17:49 51.35614 8.26221 26770 ft 464 kts 64°
2026-05-04 17:49 51.37099 8.30827 27137 ft 467 kts 64°
2026-05-04 17:49 51.38596 8.35464 27503 ft 471 kts 64°
2026-05-04 17:49 51.39941 8.40244 27854 ft 472 kts 72°
2026-05-04 17:50 51.40834 8.45308 28192 ft 473 kts 81°
2026-05-04 17:50 51.41252 8.50536 28524 ft 473 kts 90°
2026-05-04 17:50 51.41248 8.55787 28843 ft 474 kts 94°
2026-05-04 17:50 51.41178 8.61079 29166 ft 476 kts 94°
2026-05-04 17:51 51.41108 8.66396 29484 ft 479 kts 94°
2026-05-04 17:51 51.41193 8.71766 29781 ft 484 kts 86°
2026-05-04 17:51 51.41759 8.77104 30071 ft 489 kts 77°
2026-05-04 17:51 51.42823 8.82315 30311 ft 494 kts 68°
2026-05-04 17:52 51.44199 8.87364 30563 ft 496 kts 67°
2026-05-04 17:52 51.45577 8.92430 30839 ft 496 kts 68°
2026-05-04 17:52 51.46821 8.97558 31190 ft 493 kts 76°
2026-05-04 17:52 51.47485 9.02933 31547 ft 489 kts 87°
2026-05-04 17:53 51.47539 9.08354 31905 ft 484 kts 98°
2026-05-04 17:53 51.47026 9.13633 32256 ft 477 kts 108°
2026-05-04 17:53 51.45973 9.18632 32596 ft 471 kts 118°
2026-05-04 17:53 51.44416 9.23205 32937 ft 463 kts 129°
2026-05-04 17:54 51.42474 9.27281 33256 ft 459 kts 134°
2026-05-04 17:54 51.40452 9.31237 33593 ft 458 kts 135°
2026-05-04 17:54 51.38404 9.35157 33919 ft 457 kts 135°
2026-05-04 17:54 51.36362 9.39020 34084 ft 457 kts 135°
2026-05-04 17:55 51.34313 9.42876 33952 ft 449 kts 135°
2026-05-04 17:55 51.32325 9.46625 33809 ft 436 kts 135°
2026-05-04 17:55 51.30400 9.50274 33670 ft 423 kts 135°
2026-05-04 17:55 51.28524 9.53835 33517 ft 415 kts 135°
2026-05-04 17:56 51.26669 9.57339 33378 ft 412 kts 136°
2026-05-04 17:56 51.24821 9.60815 33210 ft 411 kts 136°
2026-05-04 17:56 51.22968 9.64307 32936 ft 412 kts 135°
2026-05-04 17:56 51.21080 9.67754 32533 ft 413 kts 140°
2026-05-04 17:57 51.18927 9.70747 31873 ft 411 kts 150°
2026-05-04 17:57 51.16492 9.73365 31225 ft 433 kts 152°
2026-05-04 17:57 51.13965 9.76061 30589 ft 439 kts 151°
2026-05-04 17:57 51.11444 9.78785 29979 ft 438 kts 151°
2026-05-04 17:58 51.08930 9.81516 29266 ft 436 kts 150°
2026-05-04 17:58 51.06434 9.84234 28573 ft 434 kts 150°
2026-05-04 17:58 51.03949 9.86938 27895 ft 431 kts 150°
2026-05-04 17:58 51.01514 9.89577 27246 ft 429 kts 150°
2026-05-04 17:59 50.99052 9.92231 26599 ft 427 kts 150°
2026-05-04 17:59 50.96596 9.94870 25965 ft 425 kts 150°
2026-05-04 17:59 50.91732 10.00090 24801 ft 419 kts 150°
2026-05-04 18:00 50.89323 10.02662 24241 ft 416 kts 149°
2026-05-04 18:00 50.86943 10.05197 24023 ft 411 kts 149°
2026-05-04 18:00 50.84571 10.07716 23982 ft 411 kts 149°
2026-05-04 18:00 50.82192 10.10240 23913 ft 410 kts 149°
2026-05-04 18:01 50.79842 10.12739 23553 ft 403 kts 149°
2026-05-04 18:01 50.77534 10.15195 23146 ft 398 kts 149°
2026-05-04 18:01 50.75246 10.17623 22736 ft 394 kts 149°
2026-05-04 18:02 50.70709 10.22423 21933 ft 388 kts 149°
2026-05-04 18:02 50.68488 10.24766 21541 ft 386 kts 149°
2026-05-04 18:02 50.66260 10.27118 21158 ft 383 kts 149°
2026-05-04 18:02 50.64056 10.29448 20778 ft 381 kts 149°
2026-05-04 18:03 50.61850 10.31770 20196 ft 382 kts 149°
2026-05-04 18:03 50.59637 10.34098 19598 ft 384 kts 149°
2026-05-04 18:03 50.57411 10.36434 18988 ft 385 kts 149°
2026-05-04 18:03 50.55181 10.38769 18400 ft 386 kts 149°
2026-05-04 18:04 50.52938 10.41111 17743 ft 386 kts 149°
2026-05-04 18:04 50.50705 10.43452 17152 ft 385 kts 149°
2026-05-04 18:04 50.46196 10.47339 16977 ft 357 kts 162°
2026-05-04 18:05 50.43826 10.48406 16981 ft 352 kts 171°
2026-05-04 18:05 50.41458 10.49101 16962 ft 351 kts 172°
2026-05-04 18:05 50.39062 10.49827 16645 ft 350 kts 171°
2026-05-04 18:05 50.36691 10.50625 16367 ft 348 kts 170°
2026-05-04 18:06 50.31999 10.52325 15810 ft 345 kts 169°
2026-05-04 18:06 50.29671 10.53183 15532 ft 343 kts 169°
2026-05-04 18:06 50.27357 10.54030 15261 ft 341 kts 169°
2026-05-04 18:07 50.25041 10.54869 14990 ft 340 kts 169°
2026-05-04 18:07 50.22747 10.55693 14722 ft 338 kts 169°
2026-05-04 18:07 50.20463 10.56511 14452 ft 336 kts 169°
2026-05-04 18:07 50.18187 10.57327 14194 ft 334 kts 169°
2026-05-04 18:08 50.15928 10.58136 13932 ft 333 kts 170°
2026-05-04 18:08 50.13677 10.58933 13654 ft 331 kts 170°
2026-05-04 18:08 50.11438 10.59724 13358 ft 329 kts 170°
2026-05-04 18:08 50.09206 10.60512 13065 ft 328 kts 170°
2026-05-04 18:09 50.04782 10.62079 12494 ft 325 kts 169°
2026-05-04 18:09 50.00397 10.63636 11933 ft 322 kts 169°
2026-05-04 18:10 49.98207 10.64410 11724 ft 321 kts 169°
2026-05-04 18:10 49.96029 10.65177 11585 ft 320 kts 169°
2026-05-04 18:10 49.93883 10.65933 11436 ft 320 kts 169°
2026-05-04 18:10 49.91714 10.66698 11282 ft 319 kts 169°
2026-05-04 18:11 49.89553 10.67461 11137 ft 319 kts 169°
2026-05-04 18:11 49.87391 10.68223 10988 ft 318 kts 169°
2026-05-04 18:11 49.85237 10.68981 10966 ft 317 kts 169°
2026-05-04 18:11 49.83096 10.69732 10966 ft 310 kts 169°
2026-05-04 18:12 49.81003 10.70433 10969 ft 306 kts 173°
2026-05-04 18:12 49.78900 10.70822 10966 ft 304 kts 176°
2026-05-04 18:12 49.76796 10.71166 10967 ft 304 kts 176°
2026-05-04 18:12 49.74687 10.71513 10962 ft 304 kts 176°
2026-05-04 18:13 49.72595 10.71860 10964 ft 298 kts 176°
2026-05-04 18:13 49.70583 10.72202 10962 ft 285 kts 176°
2026-05-04 18:13 49.66805 10.73853 10960 ft 286 kts 154°
2026-05-04 18:14 49.65160 10.75618 10808 ft 290 kts 141°
2026-05-04 18:14 49.63817 10.77944 10560 ft 292 kts 128°
2026-05-04 18:14 49.62842 10.80705 10213 ft 295 kts 114°
2026-05-04 18:15 49.61980 10.86853 9462 ft 295 kts 101°
2026-05-04 18:15 49.61385 10.93069 8678 ft 291 kts 101°
2026-05-04 18:15 49.61095 10.96140 8297 ft 288 kts 100°
2026-05-04 18:16 49.60806 10.99182 7979 ft 284 kts 100°
2026-05-04 18:16 49.60517 11.02190 7941 ft 284 kts 101°
2026-05-04 18:16 49.60224 11.05212 7852 ft 285 kts 101°
2026-05-04 18:17 49.59630 11.11236 7598 ft 283 kts 100°
2026-05-04 18:17 49.59334 11.14238 7464 ft 283 kts 100°
2026-05-04 18:17 49.58743 11.20213 7224 ft 281 kts 100°
2026-05-04 18:18 49.58448 11.23191 7105 ft 280 kts 100°
2026-05-04 18:18 49.58151 11.26158 6990 ft 280 kts 100°
2026-05-04 18:18 49.57859 11.29075 6867 ft 279 kts 100°
2026-05-04 18:18 49.57559 11.32066 6743 ft 278 kts 100°
2026-05-04 18:19 49.56969 11.37905 6503 ft 276 kts 100°
2026-05-04 18:19 49.56674 11.40820 6389 ft 275 kts 99°
2026-05-04 18:19 49.56381 11.43732 6262 ft 274 kts 99°
2026-05-04 18:20 49.56089 11.46629 6134 ft 274 kts 99°
2026-05-04 18:20 49.55555 11.49412 6004 ft 272 kts 121°
2026-05-04 18:20 49.54280 11.51509 5888 ft 270 kts 148°
2026-05-04 18:20 49.52519 11.52438 5739 ft 272 kts 175°
2026-05-04 18:21 49.50633 11.52010 5461 ft 281 kts 202°
2026-05-04 18:21 49.49052 11.50240 5240 ft 286 kts 230°
2026-05-04 18:21 49.48156 11.47551 5066 ft 281 kts 255°
2026-05-04 18:21 49.47694 11.44690 4913 ft 269 kts 256°
2026-05-04 18:22 49.47266 11.41969 4768 ft 256 kts 256°
2026-05-04 18:22 49.46894 11.39346 4606 ft 245 kts 261°
2026-05-04 18:22 49.46820 11.36792 4464 ft 235 kts 277°
2026-05-04 18:22 49.47104 11.34358 4256 ft 229 kts 282°
2026-05-04 18:23 49.47427 11.31995 4035 ft 224 kts 283°
2026-05-04 18:23 49.47771 11.29675 3782 ft 222 kts 283°
2026-05-04 18:23 49.48041 11.27388 3490 ft 213 kts 279°
2026-05-04 18:23 49.48238 11.25203 3200 ft 204 kts 278°
2026-05-04 18:24 49.48402 11.23097 2929 ft 189 kts 278°
2026-05-04 18:24 49.48547 11.21177 2599 ft 178 kts 280°
2026-05-04 18:24 49.48728 11.19330 2328 ft 166 kts 281°
2026-05-04 18:24 49.48894 11.17673 2139 ft 153 kts 281°
2026-05-04 18:25 49.49049 11.16057 1916 ft 153 kts 280°
2026-05-04 18:25 49.49212 11.14456 1734 ft 151 kts 281°
2026-05-04 18:25 49.49369 11.12866 1504 ft 151 kts 279°
2026-05-04 18:25 49.49531 11.11279 1330 ft 151 kts 280°
2026-05-04 18:26 49.49688 11.09674 1101 ft 152 kts 280°
2026-05-04 18:26 49.49838 11.08172 1028 ft 109 kts 279°
2026-05-04 18:26 49.49878 11.07685 1031 ft 11 kts 266°
2026-05-04 18:26 49.49817 11.07657 1028 ft 10 kts 155°
2026-05-04 18:27 49.49753 11.07705 1028 ft 10 kts 154°
2026-05-04 18:27 49.49740 11.07716 1029 ft 0 kts 154°
2026-05-04 18:29 49.49739 11.07716 1029 ft 0 kts 154°
2026-05-04 18:29 49.49711 11.07737 1026 ft 7 kts 154°
2026-05-04 18:30 49.49631 11.07768 1028 ft 5 kts 188°
2026-05-04 18:30 49.49603 11.07758 1029 ft 4 kts 198°
2026-05-04 18:30 49.49591 11.07709 1029 ft 8 kts 282°
2026-05-04 18:31 49.49603 11.07605 1027 ft 12 kts 278°
2026-05-04 18:31 49.49617 11.07458 1028 ft 16 kts 279°
2026-05-04 18:31 49.49632 11.07312 1028 ft 9 kts 278°
2026-05-04 18:31 49.49647 11.07221 1026 ft 11 kts 302°
2026-05-04 18:32 49.49674 11.07104 1029 ft 11 kts 279°
2026-05-04 18:32 49.49685 11.06988 1029 ft 9 kts 278°
2026-05-04 18:32 49.49691 11.06924 1028 ft 0 kts 278°
2026-05-04 18:32 49.49693 11.06907 1028 ft 3 kts 278°
2026-05-04 18:33 49.49688 11.06894 1025 ft 1 kts 207°
2026-05-04 18:33 49.49678 11.06892 1027 ft 4 kts 192°
2026-05-04 18:33 49.49660 11.06888 1026 ft 0 kts 189°